This demonstration page uses our WeatherBlox Daily Observations layout. Learn more.

Left ArrowRight Arrow

Hourly Observations for May 9, 2018

Temp ( °F °C ) Dew Point ( °F °C ) Humidity (%) Winds ( mph kmh ) Pressure ( in mb ) Visibility ( mi km ) Precip ( " mm )
3:53 am 03:53 Mostly Clear 53 11.7 50 10 89 89 Calm 30.04 1017 10 16 0.00 0.00
4:53 am 04:53 Mostly Clear 52 11.1 50 10 93 93 Calm 30.04 1017 10 16 0.00 0.00
5:53 am 05:53 Clear 51 10.6 50 10 96 96 Calm 30.04 1017 8 13 0.00 0.00
6:53 am 06:53 Sunny 50 10 48 8.9 93 93 Calm 30.04 1017 9 14 0.00 0.00
7:53 am 07:53 Sunny 55 12.8 51 10.6 87 87 Calm 30.05 1018 9 14 0.00 0.00
8:53 am 08:53 Sunny 63 17.2 56 13.3 78 78 E 5 7 30.03 1017 10 16 0.00 0.00
9:53 am 09:53 Sunny 73 22.8 53 11.7 50 50 S 9 15 30.02 1017 10 16 0.00 0.00
10:53 am 10:53 Sunny 76 24.4 54 12.2 47 47 SSW 10 17 30.01 1016 10 16 0.00 0.00
11:53 am 11:53 Mostly Cloudy 77 25 51 10.6 40 40 SW 13 20 30.01 1016 10 16 0.00 0.00
12:53 pm 12:53 Mostly Sunny 79 26.1 52 11.1 39 39 SSW 9 15 29.98 1015 10 16 0.00 0.00
1:53 pm 13:53 Partly Cloudy 81 27.2 55 12.8 41 41 SSW 6 9 29.95 1014 10 16 0.00 0.00
2:53 pm 14:53 Partly Cloudy with Nearby Thunderstorms 82 27.8 56 13.3 41 41 SSW 9 15 29.93 1013 10 16 0.00 0.00
3:14 pm 15:14 Sunny 79 26.1 57 13.9 47 47 SSW 10 17 29.91 1013 10 16 0.00 0.00
3:53 pm 15:53 Sunny 79 26.1 58 14.4 49 49 S 14 22 29.91 1013 10 16 0.00 0.00
4:53 pm 16:53 Sunny 79 26.1 57 13.9 47 47 VRB 7 11 29.90 1012 10 16 0.00 0.00
5:53 pm 17:53 Sunny 79 26.1 58 14.4 49 49 S 9 15 29.87 1012 10 16 0.00 0.00
6:25 pm 18:25 Sunny with Nearby Thunderstorms 79 26.1 59 15 50 50 S 8 13 29.85 1011 10 16 0.00 0.00
6:40 pm 18:40 Partly Cloudy with Light Rain 78 25.6 60 15.6 54 54 S 10 17 29.85 1011 10 16 0.00 0.03
6:53 pm 18:53 Partly Cloudy 77 25 61 16.1 58 58 VRB 6 9 29.85 1011 10 16 0.00 0.03
7:53 pm 19:53 Sunny 75 23.9 61 16.1 62 62 VRB 3 6 29.84 1011 10 16 0.00 0.03
8:53 pm 20:53 Clear 74 23.3 59 15 60 60 VRB 7 11 29.83 1010 10 16 0.00 0.00
9:53 pm 21:53 Mostly Clear 74 23.3 59 15 60 60 S 3 6 29.83 1010 10 16 0.00 0.00
10:53 pm 22:53 Mostly Clear 74 23.3 60 15.6 62 62 VRB 6 9 29.83 1010 10 16 0.00 0.00
11:53 pm 23:53 Clear 75 23.9 59 15 58 58 S 10 17 29.83 1010 10 16 0.00 0.00

Powered by AerisWeather